Flag for U.S.A. Weather past 2 weeks in Independence, Missouri, U.S.A.

Now
55 °F

Sunny.


Feels Like: 53 °F
Forecast: 43 / 66 °F
Wind: 7 mph from Southeast

Location: Lee's Summit Municipal Airport

Current Time: Apr 27, 2015 at 10:58:31 AM

Latest Report: Apr 27, 2015 at 9:53 AM


Visibility: 10 mi

Pressure: 30.17 "Hg

Humidity: 53%

Dew point: 38 °F

Location of IndependenceLocation

Historic Weather in Independence — Graph

°F

Independence temperature yesterday

Maximum temperature yesterday: 62 °F (at 5:53 PM)
Minimum temperature yesterday: 47 °F (at 7:53 AM)
Average temperature yesterday: 52 °F

Past Weeks' High & Low Weather Summary

 TemperatureHumidityPressure
High76 °F (Apr 17, 12:53 PM)100% (Apr 19, 1:53 AM)30.25 "Hg (Apr 19, 1:53 AM)
Low38 °F (Apr 22, 6:53 AM)24% (Apr 21, 6:53 PM)29.40 "Hg (Apr 25, 6:53 AM)
Average57 °F63%29.92 "Hg
* Reported Apr 12 8:53 AM — Apr 27 8:53 AM, Independence, Weather by CustomWeather, © 2015

Note: Actual official high and low records may vary slightly from our data, if they occured in-between our weather recording intervals... More about our weather records

Advertising

Independence weather history for previous 24 hours

 ConditionsComfort  
Time TempWeatherWind HumidityBarometerVisibility
8:53 AM
Mon, Apr 27
51 °FSunny.6 mph63%30.16 "Hg10 mi
7:53 AM45 °FSunny.3 mph80%30.13 "Hg10 mi
6:53 AM43 °FClear.No wind76%30.11 "Hg10 mi
5:53 AM44 °FClear.6 mph73%30.08 "Hg10 mi
4:53 AM47 °FClear.9 mph66%30.04 "Hg10 mi
3:53 AM47 °FClear.9 mph66%30.04 "Hg10 mi
2:53 AM47 °FClear.9 mph66%30.04 "Hg10 mi
1:53 AM48 °FClear.9 mph63%30.04 "Hg10 mi
12:53 AM49 °FClear.7 mph61%30.03 "Hg10 mi
11:53 PM
Sun, Apr 26
50 °FClear.8 mph59%30.03 "Hg10 mi
10:53 PM52 °FClear.10 mph55%30.01 "Hg10 mi
9:53 PM53 °FClear.8 mph52%30.01 "Hg10 mi
8:53 PM54 °FSunny.6 mph51%29.99 "Hg10 mi
7:53 PM58 °FSunny.8 mph43%29.96 "Hg10 mi
6:53 PM60 °FSunny.10 mph41%29.93 "Hg10 mi
5:53 PM62 °FSunny.14 mph39%29.92 "Hg10 mi
4:53 PM61 °FSunny.15 mph44%29.92 "Hg10 mi
3:53 PM60 °FPartly sunny.13 mph52%29.93 "Hg10 mi
2:53 PM59 °FScattered clouds.14 mph56%29.95 "Hg10 mi
1:53 PM56 °FOvercast.9 mph65%29.97 "Hg10 mi
12:53 PM54 °FMostly cloudy.13 mph67%29.99 "Hg10 mi
11:53 AM50 °FOvercast.13 mph74%30.00 "Hg10 mi
10:53 AM49 °FOvercast.14 mph74%29.99 "Hg10 mi
Weather by CustomWeather, © 2015

See weather overviewHow to use our weather pages